Location: Newark
(45.4422°N, 16.2769°E)
Time: 03:22:50
(UTC+00:00)

Vanguard 2 - Pass Details

Date: 13 December 2019
Orbit: 553 x 2938 km, 32.9° (Epoch: 19 January)

Event Time Altitude Azimuth Distance (km) Brightness Sun altitude
Rises 04:36:16 0° 273° (W) 6,656 - -18.4°
Reaches altitude 10° 04:41:02 10° 267° (W) 5,740 - -17.6°
Exits shadow 04:43:25 15° 262° (W) 5,307 11.2 -17.2°
Maximum altitude 04:56:26 38° 208° (SSW) 3,743 10.9 -15.0°
Drops below altitude 10° 05:09:24 10° 148° (SSE) 4,838 12.4 -12.8°
Sets 05:13:03 0° 140° (SE) 5,546 13.1 -12.2°
